Weather History for Goodland, KS

Change the Weather History Date:

Thursday, October 6, 2011

  Actual Average Record
Temperature  
Mean Temperature 69 °F 56 °F  
Max Temperature 83 °F 70 °F 91 °F (2007)
Min Temperature 55 °F 41 °F 19 °F (1952)
Degree Days  
Heating Degree Days 0 10  
Month to date heating degree days 6 54  
Since 1 July heating degree days 130 178  
Cooling Degree Days 4 0  
Month to date cooling degree days 14 5  
Year to date cooling degree days 1113 938  
Growing Degree Days 18 (Base 50)    
Moisture  
Dew Point 54 °F    
Average Humidity 57    
Maximum Humidity 87    
Minimum Humidity 26    
Precipitation  
Precipitation 0.63 in 0.05 in 1.07 in (2004)
Month to date precipitation 0.63 0.29  
Year to date precipitation 17.08 17.41  
Snow  
Snow T in 0.00 in - ()
Month to date snowfall T 0.2  
Since 1 July snowfall T 0.6  
Since 1 September snowfall T 0.6  
Snow Depth 0.00 in    
Sea Level Pressure  
Sea Level Pressure 29.59 in    
Wind  
Wind Speed 28 mph (South)    
Max Wind Speed 46 mph    
Max Gust Speed 61 mph    
Visibility 9 miles    
Events Rain , Thunderstorm    
T = Trace of Precipitation, MM = Missing Value Source: NWS Daily Summary

Daily Weather History Graph

Daily Weather History Graph

Search for Another Location

Airport:

Trip Planner

Search our weather history database for the weather conditions in past years. The results will help you decide how hot, cold, wet, or windy it might be!

Date:

Astronomy

Oct. 06, 2011 Rise Set
Actual Time 6:47 AM MDT 6:21 PM MDT
Civil Twilight 6:20 AM MDT 6:48 PM MDT
Nautical Twilight 5:49 AM MDT 7:19 PM MDT
Astronomical Twilight 5:18 AM MDT 7:50 PM MDT
Moon 3:34 PM MDT (10/6) 1:39 AM MDT (10/6)
Length of Visible Light 12h 27m
Length of Day
11h 34m
Waxing Gibbous, 76% of the Moon is Illuminated
Oct 6
Waxing Gibbous
Oct 11
Full
Oct 19
Last Quarter
Oct 26
New
Nov 2
First Quarter

Hourly Weather History & Observations

Time (MDT) Temp. Dew Point Humidity Pressure Visibility Wind Dir Wind Speed Gust Speed Precip Events Conditions
12:53 AM 61.0 °F 54.0 °F 78% 29.64 in 10.0 mi South 34.5 mph 43.7 mph N/A   Overcast
1:53 AM 60.1 °F 54.0 °F 80% 29.64 in 10.0 mi South 26.5 mph 38.0 mph N/A   Overcast
2:53 AM 61.0 °F 55.0 °F 81% 29.61 in 10.0 mi South 29.9 mph 40.3 mph N/A   Overcast
3:53 AM 60.1 °F 55.0 °F 83% 29.60 in 10.0 mi South 28.8 mph 40.3 mph N/A   Overcast
4:41 AM 60.8 °F 55.4 °F 82% 29.70 in 10.0 mi South 23.0 mph 32.2 mph N/A   Overcast
4:53 AM 60.1 °F 55.0 °F 83% 29.58 in 10.0 mi South 25.3 mph 38.0 mph N/A   Overcast
5:53 AM 59.0 °F 55.0 °F 87% 29.57 in 10.0 mi South 27.6 mph 38.0 mph N/A   Mostly Cloudy
6:04 AM 59.0 °F 55.4 °F 88% 29.68 in 10.0 mi South 25.3 mph 34.5 mph N/A   Scattered Clouds
6:21 AM 59.0 °F 55.4 °F 88% 29.68 in 10.0 mi South 23.0 mph 31.1 mph N/A   Mostly Cloudy
6:53 AM 60.1 °F 55.0 °F 83% 29.59 in 10.0 mi South 25.3 mph 36.8 mph N/A   Overcast
7:25 AM 60.8 °F 55.4 °F 82% 29.68 in 10.0 mi South 25.3 mph 38.0 mph N/A   Scattered Clouds
7:49 AM 60.8 °F 55.4 °F 82% 29.68 in 10.0 mi South 28.8 mph 36.8 mph N/A   Mostly Cloudy
7:53 AM 61.0 °F 55.0 °F 81% 29.59 in 10.0 mi South 26.5 mph 36.8 mph N/A   Mostly Cloudy
8:53 AM 63.0 °F 55.0 °F 75% 29.59 in 10.0 mi South 26.5 mph 39.1 mph N/A   Scattered Clouds
9:53 AM 68.0 °F 54.0 °F 61% 29.56 in 10.0 mi South 33.4 mph 43.7 mph N/A   Clear
10:53 AM 70.0 °F 54.0 °F 57% 29.55 in 10.0 mi South 35.7 mph 46.0 mph N/A   Clear
11:53 AM 75.9 °F 51.1 °F 42% 29.49 in 10.0 mi South 35.7 mph 51.8 mph N/A   Clear
12:53 PM 80.1 °F 50.0 °F 35% 29.45 in 10.0 mi South 42.6 mph 55.2 mph N/A   Partly Cloudy
1:53 PM 82.9 °F 45.0 °F 26% 29.42 in 10.0 mi South 39.1 mph 57.5 mph N/A   Overcast
2:53 PM 82.9 °F 48.0 °F 29% 29.42 in 10.0 mi South 34.5 mph 49.5 mph N/A   Overcast
3:53 PM 80.1 °F 51.1 °F 36% 29.42 in 10.0 mi South 34.5 mph 50.6 mph N/A   Overcast
4:53 PM 77.0 °F 55.0 °F 47% 29.44 in 10.0 mi SSE 39.1 mph 52.9 mph N/A   Overcast
5:53 PM 73.0 °F 55.9 °F 55% 29.47 in 10.0 mi SSE 38.0 mph 51.8 mph N/A   Overcast
6:53 PM 72.0 °F 57.0 °F 59% 29.51 in 10.0 mi South 31.1 mph 49.5 mph N/A   Overcast
7:53 PM 69.1 °F 57.9 °F 68% 29.51 in 10.0 mi SSE 33.4 mph 44.9 mph N/A   Mostly Cloudy
8:10 PM 64.4 °F 57.2 °F 77% 29.61 in 10.0 mi South 28.8 mph 49.5 mph N/A Thunderstorm Scattered Clouds
8:17 PM 62.6 °F 60.8 °F 94% 29.64 in 1.8 mi South 19.6 mph 59.8 mph 0.00 in Rain , Thunderstorm Heavy Thunderstorms and Rain
8:30 PM 62.6 °F 60.8 °F 94% 29.65 in 1.8 mi South 16.1 mph 28.8 mph 0.52 in Rain , Thunderstorm Heavy Thunderstorms and Rain
8:33 PM 62.6 °F 60.8 °F 94% 29.65 in 3.0 mi South 11.5 mph 27.6 mph 0.57 in Rain , Thunderstorm Heavy Thunderstorms and Rain
8:53 PM 57.9 °F 57.0 °F 97% 29.57 in 10.0 mi South 25.3 mph 34.5 mph 0.63 in Thunderstorm Mostly Cloudy
9:01 PM 57.2 °F 55.4 °F 94% 29.67 in 10.0 mi South 16.1 mph - N/A   Mostly Cloudy
9:10 PM 57.2 °F 55.4 °F 94% 29.68 in 10.0 mi SSW 19.6 mph 25.3 mph N/A Thunderstorm Scattered Clouds
9:25 PM 59.0 °F 51.8 °F 77% 29.67 in 10.0 mi SW 11.5 mph 21.9 mph N/A   Partly Cloudy
9:53 PM 55.9 °F 50.0 °F 80% 29.61 in 10.0 mi SSW 9.2 mph - N/A   Clear
10:53 PM 59.0 °F 37.0 °F 44% 29.63 in 10.0 mi SSW 8.1 mph - N/A   Scattered Clouds
11:53 PM 55.0 °F 41.0 °F 59% 29.65 in 10.0 mi SSW 10.4 mph - N/A   Overcast